Flag for Switzerland Weather past 2 weeks in Bern, Bern, Switzerland

Now
68 °F

Passing clouds.


Feels Like: 68 °F
Forecast: 46 / 73 °F
Wind: 7 mph from West

Location: Bern / Belp

Current Time: May 28, 2015 at 3:13:32 PM

Latest Report: May 28, 2015 at 2:50 PM


Visibility: N/A

Pressure: 30.07 "Hg

Humidity: 28%

Dew point: 34 °F

Location of BernLocation

Historic Weather in Bern — Graph

°F

Bern temperature yesterday

Maximum temperature yesterday: 64 °F (at 4:20 PM)
Minimum temperature yesterday: 45 °F (at 6:20 AM)
Average temperature yesterday: 54 °F

Past Weeks' High & Low Weather Summary

 TemperatureHumidityPressure
High84 °F (May 13, 3:20 PM)100% (May 15, 8:50 PM)30.30 "Hg (May 15, 8:50 PM)
Low37 °F (May 28, 3:50 AM)25% (May 13, 5:50 PM)29.77 "Hg (May 18, 5:50 PM)
Average55 °F74%30.06 "Hg
* Reported May 13 1:20 PM — May 28 1:50 PM, Bern, Weather by CustomWeather, © 2015

Note: Actual official high and low records may vary slightly from our data, if they occured in-between our weather recording intervals... More about our weather records

Advertising

Bern weather history for previous 24 hours

 ConditionsComfort  
Time TempWeatherWind HumidityBarometerVisibility
1:50 PM
Thu, May 28
68 °FPassing clouds.8 mph35%30.07 "HgN/A
1:20 PM66 °FSunny.6 mph46%30.07 "Hg10 mi
12:50 PM66 °FPassing clouds.5 mph49%30.09 "HgN/A
12:20 PM64 °FPassing clouds.7 mph49%30.09 "HgN/A
11:50 AM63 °FSunny.8 mph52%30.09 "Hg10 mi
11:20 AM61 °FSunny.5 mph55%30.09 "Hg10 mi
10:50 AM59 °FSunny.3 mph59%30.12 "Hg10 mi
10:20 AM57 °FSunny.2 mph63%30.12 "Hg10 mi
9:50 AM55 °FSunny.1 mph63%30.12 "Hg10 mi
9:20 AM54 °FSunny.2 mph72%30.12 "Hg10 mi
8:50 AM54 °FSunny.2 mph72%30.12 "Hg10 mi
8:20 AM50 °FSunny.1 mph82%30.12 "Hg10 mi
7:50 AM48 °FSunny.1 mph87%30.12 "Hg10 mi
7:20 AM43 °FSunny.No wind93%30.12 "Hg10 mi
6:50 AM39 °FSunny.No wind100%30.12 "Hg10 mi
6:20 AM37 °FClear.No wind100%30.12 "Hg10 mi
5:20 AM37 °FClear.1 mph100%30.12 "Hg10 mi
4:50 AM37 °FClear.3 mph93%30.12 "Hg10 mi
4:20 AM37 °FChilly.1 mph100%30.12 "Hg4 mi
3:50 AM37 °FChilly.1 mph100%30.12 "Hg5 mi
3:20 AM39 °FClear.1 mph100%30.12 "Hg10 mi
2:50 AM39 °FChilly.1 mph93%30.12 "Hg6 mi
2:20 AM39 °FClear.1 mph100%30.12 "Hg10 mi
1:50 AM41 °FClear.2 mph93%30.12 "Hg10 mi
1:20 AM41 °FClear.2 mph100%30.15 "Hg10 mi
12:50 AM41 °FClear.3 mph100%30.15 "Hg10 mi
12:20 AM43 °FClear.2 mph93%30.15 "Hg10 mi
11:50 PM
Wed, May 27
45 °FClear.1 mph87%30.15 "Hg10 mi
11:20 PM46 °FClear.1 mph82%30.15 "Hg10 mi
10:50 PM46 °FClear.1 mph87%30.15 "Hg10 mi
10:20 PM46 °FClear.1 mph93%30.15 "Hg10 mi
9:50 PM50 °FSunny.1 mph82%30.15 "Hg10 mi
9:20 PM55 °FSunny.2 mph59%30.15 "Hg10 mi
8:50 PM57 °FSunny.1 mph48%30.15 "Hg10 mi
8:20 PM59 °FPassing clouds.5 mph48%30.15 "HgN/A
7:50 PM61 °FSunny.5 mph42%30.15 "Hg10 mi
7:20 PM61 °FPassing clouds.5 mph42%30.15 "HgN/A
6:50 PM63 °FSunny.8 mph42%30.15 "Hg10 mi
6:20 PM63 °FPassing clouds.9 mph45%30.15 "HgN/A
5:50 PM63 °FPassing clouds.8 mph42%30.15 "HgN/A
5:20 PM63 °FPassing clouds.6 mph45%30.15 "HgN/A
4:50 PM63 °FPassing clouds.3 mph45%30.15 "HgN/A
4:20 PM64 °FPassing clouds.7 mph43%30.18 "HgN/A
3:50 PM63 °FPassing clouds.5 mph42%30.18 "HgN/A
3:20 PM61 °FPassing clouds.7 mph48%30.18 "HgN/A
Weather by CustomWeather, © 2015

See weather overviewHow to use our weather pages